User: anonymous   Login
Location: Chowchilla Mountain
(37.5599°N, 119.7546°W)
Time: 19:00:03
(UTC+00:00)
Language:

USA 229 - Orbit

View from above orbital plane
View from above orbital plane
View from above satellite
View from above satellite

Ground track
Ground track

The orbit data is extracted from the following two-line orbital elements,

1 37386U 11014A   24244.80582808 0.00000005  00000-0  70730-5 0    09
2 37386  63.4390 151.5961 0288678 355.9921   4.0079 13.40945286    07
Epoch (UTC): 31 August 2024 19:20:23
Eccentricity: 0.0288678
inclination: 63.4390°
perigee height: 890 km
apogee height: 1322 km
right ascension of ascending node: 151.5961°
argument of perigee: 355.9921°
revolutions per day: 13.40945286
mean anomaly at epoch: 4.0079°
orbit number at epoch: 0

The dashed part of the orbit path shows where the satellite is in the earth's shadow,  

DLR